Location: UMBC
(39.2555°N, 76.7093°W)
Time: 03:11:50
(UTC+02:00)

Amateur Radio Satellites - All Passes

Search period start: 23 May 2015 02:41
Search period end: 24 May 2015 02:41
Location: UMBC, 39.2555°N, 76.7093°W

Satellite Date Start Highest point End Downlink Frequencies (MHz)
Time Altitude Azimuth
DOVE 4 23 May 02:42:00 02:46:49 51° 73° (ENE) 02:51:55 437.250
CUBEBUG 2 23 May 02:46:30 02:49:01 15° 65° (ENE) 02:51:46 437.445
GOMX 1 23 May 02:55:04 03:00:02 80° 258° (WSW) 03:05:22 467.674
CINEMA 3 23 May 02:56:31 03:00:59 36° 71° (ENE) 03:05:36 145.822/145.860
COMPASS 1 23 May 02:58:14 03:02:15 46° 74° (ENE) 03:06:18 437.405
CUBESAT XI-V 23 May 03:03:20 03:05:24 12° 296° (WNW) 03:07:14 437.345
ZACube-1 23 May 03:09:33 03:12:12 16° 66° (ENE) 03:15:02 437.345
AAUSAT CUBESAT 2 23 May 03:14:30 03:18:38 62° 75° (ENE) 03:22:46 437.432
BEESAT 2 23 May 03:16:48 03:19:18 15° 317° (NW) 03:21:43 435.950
PRISM 23 May 03:19:57 03:22:10 14° 294° (WNW) 03:24:12 437.425
DX 1 23 May 03:24:56 03:25:59 11° 64° (ENE) 03:27:18 434.975-435.025
Oscar 11 23 May 03:31:48 03:35:54 44° 73° (ENE) 03:40:04 145.826/435.025
CANX-2 23 May 03:38:15 03:42:11 34° 263° (W) 03:46:05 2200.000
Cosmos 2491 23 May 03:40:35 03:48:43 39° 288° (WNW) 03:56:47 435.465 / 435.565
UWE-3 23 May 03:42:05 03:46:29 43° 73° (ENE) 03:50:57 435.000/436.395/437.385
YUBILEINY 23 May 03:42:13 03:48:03 19° 279° (W) 03:53:22 435.215
CUTE 1.7 + AOD 2 23 May 03:42:35 03:46:30 34° 263° (W) 03:50:24 437.475
HUMSAT D 23 May 03:43:40 03:46:12 16° 67° (ENE) 03:48:53 437.325/437.525
AISAT 23 May 03:50:12 03:50:55 10° 63° (ENE) 03:51:54 437.250
AIST 1 23 May 03:56:20 04:00:32 65° 279° (W) 04:04:47
STRAND 1 23 May 04:03:08 04:03:59 10° 300° (WNW) 04:04:31 437.568
FUNcube-1 23 May 04:05:11 04:09:41 59° 75° (ENE) 04:14:14 145.935
Cosmos 2504 23 May 04:08:10 04:15:25 70° 80° (E) 04:22:35 435.465 / 435.565
HO-68 23 May 04:08:13 04:14:29 31° 265° (W) 04:20:37 435.675
50 SAT 23 May 04:12:06 04:14:40 17° 68° (ENE) 04:17:22 437.505
AIST 2 23 May 04:13:39 04:16:07 15° 318° (NW) 04:18:28 435.215
SEEDS 23 May 04:13:55 04:17:01 19° 268° (W) 04:19:59 437.485
DELFI C3 23 May 04:14:18 04:18:21 81° 257° (WSW) 04:22:24 145.870
CUBEBUG 2 23 May 04:20:34 04:25:16 60° 261° (W) 04:30:00 437.445
DOVE 4 23 May 04:21:31 04:24:58 18° 271° (W) 04:28:20 437.250
CINEMA 3 23 May 04:34:13 04:38:16 24° 267° (W) 04:42:17 145.822/145.860
COMPASS 1 23 May 04:36:03 04:38:15 13° 270° (W) 04:40:13 437.405
ESTCUBE 1 23 May 04:37:58 04:41:07 20° 68° (ENE) 04:44:24 437.505/2401.250
ZACube-1 23 May 04:43:42 04:48:10 52° 261° (W) 04:52:41 437.345
VELOX 1 23 May 04:52:52 04:57:06 48° 73° (ENE) 05:01:24 145.980
UKube-1 23 May 04:55:49 05:00:08 78° 258° (WSW) 05:04:29 .
DX 1 23 May 04:57:24 05:01:43 70° 258° (WSW) 05:06:05 434.975-435.025
CUBEBUG 1 23 May 05:05:27 05:09:17 32° 71° (ENE) 05:13:12 437.445
ANTELSAT 23 May 05:08:16 05:12:09 30° 96° (E) 05:15:59 437.575/2403.000
Oscar 11 23 May 05:09:45 05:12:21 15° 269° (W) 05:14:48 145.826/435.025
HUMSAT D 23 May 05:17:27 05:21:37 45° 261° (W) 05:25:47 437.325/437.525
DANDE 23 May 05:18:30 05:21:17 12° 52° (NE) 05:24:26 436.750
UWE-3 23 May 05:19:56 05:23:15 18° 269° (W) 05:26:24 435.000/436.395/437.385
AISAT 23 May 05:22:31 05:26:56 76° 258° (WSW) 05:31:25 437.250
POLYITAN 1 23 May 05:25:12 05:28:25 21° 93° (E) 05:31:43 437.675
QB50P1 23 May 05:25:55 05:29:08 21° 93° (E) 05:32:26 145.935-145.965
BUGSAT 1 23 May 05:32:36 05:35:16 17° 92° (E) 05:38:05 437.445
TIGRISAT 23 May 05:43:01 05:47:28 74° 102° (ESE) 05:51:46 435.000
FUNcube-1 23 May 05:44:15 05:46:27 13° 271° (W) 05:48:24 145.935
50 SAT 23 May 05:45:27 05:49:09 35° 263° (W) 05:52:50 437.505
NANOSAT C BR1 23 May 05:58:23 06:02:32 48° 99° (E) 06:06:40 145.865
UNISAT 6 23 May 06:01:21 06:05:47 67° 285° (WNW) 06:10:04 437.425
SPROUT 23 May 06:02:38 06:06:35 37° 72° (ENE) 06:10:36 437.525
QB50P2 23 May 06:02:45 06:06:59 57° 100° (E) 06:11:11 145.880/145.840
Cosmos 2504 23 May 06:03:22 06:08:05 18° 277° (W) 06:12:25 435.465 / 435.565
GONETS M04 23 May 06:11:41 06:19:03 30° 68° (ENE) 06:26:35
ESTCUBE 1 23 May 06:13:35 06:17:46 37° 263° (W) 06:21:56 437.505/2401.250
POPSAT HIP 1 23 May 06:16:13 06:20:32 81° 102° (ESE) 06:24:48 437.405
CUSAT 1 23 May 06:19:57 06:27:03 40° 69° (ENE) 06:32:55 437.405
DUCHIFAT 1 23 May 06:22:08 06:26:27 89° 285° (WNW) 06:30:42 145.980
VELOX 1 23 May 06:31:27 06:34:00 14° 270° (W) 06:36:20 145.980
CUBEBUG 1 23 May 06:42:24 06:45:44 21° 267° (W) 06:49:00 437.445
TISAT 1 23 May 06:44:13 06:48:26 83° 78° (ENE) 06:52:43 437.305
ANTELSAT 23 May 06:45:17 06:48:49 23° 291° (WNW) 06:52:10 437.575/2403.000
DANDE 23 May 06:58:35 07:06:45 62° 76° (ENE) 07:13:25 436.750
ITUPSAT 1 23 May 06:58:41 07:01:59 20° 66° (ENE) 07:05:27 437.325
POLYITAN 1 23 May 07:00:34 07:04:24 31° 289° (WNW) 07:08:08 437.675
QB50P1 23 May 07:01:14 07:05:04 31° 289° (WNW) 07:08:48 145.935-145.965
BUGSAT 1 23 May 07:06:56 07:10:57 39° 288° (WNW) 07:14:54 437.445
ISS 23 May 07:07:58 07:11:03 43° 137° (SE) 07:14:11 145.825
BEESAT 23 May 07:08:53 07:12:41 25° 68° (ENE) 07:16:36 436.000
SWISSCUBE 23 May 07:16:12 07:20:22 32° 70° (ENE) 07:24:36 437.505
TIGRISAT 23 May 07:22:44 07:23:38 10° 297° (WNW) 07:24:16 435.000
Oscar 19 23 May 07:27:46 07:30:41 16° 90° (E) 07:33:50 437.125/150
NANOSAT C BR1 23 May 07:35:35 07:38:00 14° 294° (WNW) 07:40:14 145.865
SPROUT 23 May 07:39:49 07:42:50 18° 268° (W) 07:45:44 437.525
QB50P2 23 May 07:40:29 07:42:26 13° 295° (WNW) 07:44:11 145.880/145.840
CUSAT 1 23 May 08:02:52 08:09:39 36° 273° (W) 08:15:07 437.405
GONETS M04 23 May 08:07:54 08:16:28 58° 269° (W) 08:24:54
O/OREOS (USA 219) 23 May 08:09:37 08:13:23 27° 60° (ENE) 08:17:14 437.305
STARS 23 May 08:09:58 08:11:14 11° 64° (ENE) 08:12:45 437.465
PCSat 23 May 08:18:01 08:23:25 79° 115° (ESE) 08:28:51 145.827
KKS-1 23 May 08:27:53 08:31:41 28° 70° (ENE) 08:35:34 437.445
ITUPSAT 1 23 May 08:35:05 08:39:37 43° 262° (W) 08:44:09 437.325
DANDE 23 May 08:42:54 08:49:15 25° 277° (W) 08:54:32 436.750
ISS 23 May 08:44:54 08:47:36 23° 334° (NNW) 08:50:19 145.825
BEESAT 23 May 08:46:08 08:50:25 32° 264° (W) 08:54:40 436.000
Cosmos 2499 23 May 08:50:31 08:57:23 52° 77° (ENE) 09:04:18 435.465 / 435.565
SWISSCUBE 23 May 08:54:19 08:58:17 25° 266° (W) 09:02:08 437.505
Oscar 19 23 May 09:05:26 09:10:31 58° 287° (WNW) 09:15:33 437.125/150
ITAMSAT 1 23 May 09:09:13 09:14:10 44° 98° (E) 09:19:09 435.822/435.867
BEESAT 3 23 May 09:15:40 09:17:52 14° 43° (NE) 09:20:11 437.485
Gurwin Techsat 1B 23 May 09:19:55 09:25:07 52° 100° (E) 09:30:18 435.225
JAS-2 23 May 09:41:45 09:43:43 12° 88° (E) 09:46:03 435.910
STARS 23 May 09:42:45 09:47:10 70° 258° (WSW) 09:51:37 437.465
O/OREOS (USA 219) 23 May 09:48:59 09:52:47 27° 256° (WSW) 09:56:29 437.305
BEESAT 2 23 May 09:57:15 10:00:47 27° 50° (NE) 10:04:19 435.950
PCSat 23 May 10:03:58 10:07:32 17° 316° (NW) 10:10:57 145.827
KKS-1 23 May 10:04:33 10:08:18 25° 265° (W) 10:12:00 437.445
VERMONT LUNAR 23 May 10:15:59 10:19:02 42° 158° (SSE) 10:22:05 437.305
ISS 23 May 10:24:39 10:24:58 10° 354° (N) 10:25:15 145.825
AO-7 23 May 10:28:35 10:36:07 37° 97° (E) 10:43:46 29.400- 29.500
SO-50 23 May 10:35:33 10:40:10 68° 118° (ESE) 10:44:58 436.795
Cosmos 2499 23 May 10:44:34 10:50:08 24° 274° (W) 10:55:28 435.465 / 435.565
HORYU 2 23 May 10:47:40 10:52:07 70° 102° (ESE) 10:56:30 437.375
ITAMSAT 1 23 May 10:49:23 10:53:26 23° 294° (WNW) 10:57:22 435.822/435.867
BEESAT 3 23 May 10:52:16 10:56:18 62° 242° (WSW) 11:00:16 437.485
AIST 2 23 May 10:55:47 10:59:37 33° 51° (NE) 11:03:25 435.215
MOZHAYETS 4 23 May 10:59:47 11:04:23 89° 250° (WSW) 11:08:59
Gurwin Techsat 1B 23 May 11:00:56 11:04:45 20° 295° (WNW) 11:08:24 435.225
JAS-2 23 May 11:24:23 11:29:33 66° 286° (WNW) 11:34:44 435.910
PHONESAT 2.4 23 May 11:27:46 11:31:04 43° 157° (SSE) 11:34:23 2401.200-2431.200
BEESAT 2 23 May 11:35:22 11:38:49 26° 247° (WSW) 11:42:10 435.950
VERMONT LUNAR 23 May 11:52:59 11:56:10 73° 352° (N) 11:59:23 437.305
Cosmos 2491 23 May 11:55:59 12:01:59 21° 63° (ENE) 12:08:23 435.465 / 435.565
STRAND 1 23 May 11:58:47 12:01:33 15° 63° (ENE) 12:04:31 437.568
ISS 23 May 12:01:04 12:02:32 12° 14° (NNE) 12:04:02 145.825
SO-50 23 May 12:17:59 12:21:15 18° 319° (NW) 12:24:29 436.795
AO-7 23 May 12:21:09 12:29:06 49° 295° (WNW) 12:36:58 29.400- 29.500
CUBESAT XI-V 23 May 12:26:03 12:30:33 58° 74° (ENE) 12:35:06 437.345
HORYU 2 23 May 12:26:47 12:28:14 11° 297° (WNW) 12:29:27 437.375
CUTE-I 23 May 12:28:52 12:32:46 21° 92° (E) 12:36:51 437.470
PRISM 23 May 12:32:24 12:35:58 30° 71° (ENE) 12:39:35 437.425
AIST 2 23 May 12:34:42 12:38:02 22° 248° (WSW) 12:41:14 435.215
Cubesat XI-IV 23 May 12:47:30 12:52:13 32° 96° (E) 12:57:01 437.490
YUBILEINY 23 May 12:50:10 12:55:17 18° 80° (E) 13:00:55 435.215
M-CUBED/EXP-1 PRIME 23 May 13:04:35 13:08:56 63° 71° (ENE) 13:12:59 437.505
PHONESAT 2.4 23 May 13:05:40 13:09:07 75° 352° (N) 13:12:36 2401.200-2431.200
AUBIESAT-1 23 May 13:17:01 13:21:23 76° 72° (ENE) 13:25:25 437.475
VERMONT LUNAR 23 May 13:30:17 13:33:30 83° 10° (N) 13:36:42 437.305
STRAND 1 23 May 13:35:14 13:40:16 65° 259° (WSW) 13:45:21 437.568
ISS 23 May 13:36:29 13:39:38 42° 33° (NNE) 13:42:46 145.825
Cosmos 2491 23 May 13:51:14 14:00:08 82° 264° (W) 14:08:54 435.465 / 435.565
AIST 1 23 May 14:04:48 14:08:29 26° 75° (ENE) 14:12:14
CUBESAT XI-V 23 May 14:06:19 14:08:27 13° 271° (W) 14:10:21 437.345
CUTE-I 23 May 14:08:00 14:13:08 47° 289° (WNW) 14:18:14 437.470
PRISM 23 May 14:08:28 14:11:30 19° 267° (W) 14:14:26 437.425
AO-7 23 May 14:19:25 14:20:04 10° 315° (NW) 14:20:10 29.400- 29.500
Cubesat XI-IV 23 May 14:27:35 14:32:18 31° 292° (WNW) 14:36:57 437.490
BRITE-PL 23 May 14:33:38 14:38:45 35° 94° (E) 14:43:47 437.365/2234.400
YUBILEINY 23 May 14:42:20 14:51:09 85° 277° (W) 14:59:57 435.215
M-CUBED/EXP-1 PRIME 23 May 14:42:43 14:44:05 11° 264° (W) 14:45:08 437.505
DOVE 4 23 May 14:43:49 14:46:57 17° 88° (E) 14:50:13 437.250
PHONESAT 2.4 23 May 14:43:53 14:47:22 84° 15° (NNE) 14:50:50 2401.200-2431.200
RS-15 23 May 14:46:13 14:54:51 30° 106° (ESE) 15:04:01 29.354- 29.394
GOMX 1 23 May 14:58:30 15:03:29 37° 95° (E) 15:08:19 467.674
AAUSAT CUBESAT 2 23 May 15:01:35 15:01:58 10° 88° (E) 15:02:38 437.432
VERMONT LUNAR 23 May 15:07:42 15:10:33 30° 206° (SSW) 15:13:25 437.305
ISS 23 May 15:13:26 15:15:52 19° 228° (SW) 15:18:13 145.825
CANX-2 23 May 15:24:19 15:28:18 41° 98° (E) 15:32:17 2200.000
CUTE 1.7 + AOD 2 23 May 15:28:33 15:32:32 41° 98° (E) 15:36:32 437.475
HO-68 23 May 15:35:44 15:42:44 56° 101° (E) 15:49:44 435.675
AIST 1 23 May 15:42:32 15:46:03 23° 270° (W) 15:49:29
Cosmos 2491 23 May 15:51:10 15:55:46 15° 282° (WNW) 15:59:44 435.465 / 435.565
DELFI C3 23 May 15:56:04 15:58:12 14° 91° (E) 16:00:31 145.870
FUNcube-1 23 May 15:57:15 15:58:36 12° 88° (E) 16:00:13 145.935
SEEDS 23 May 15:57:51 16:02:02 77° 101° (ESE) 16:06:12 437.485
ANTELSAT 23 May 16:06:08 16:10:00 26° 69° (ENE) 16:13:56 437.575/2403.000
BRITE-PL 23 May 16:12:08 16:17:10 32° 291° (WNW) 16:21:59 437.365/2234.400
CUBEBUG 2 23 May 16:13:28 16:17:27 31° 95° (E) 16:21:21 437.445
COMPASS 1 23 May 16:18:03 16:22:12 77° 283° (WNW) 16:26:20 437.405
POLYITAN 1 23 May 16:18:08 16:20:33 15° 66° (ENE) 16:23:08 437.675
QB50P1 23 May 16:18:37 16:20:58 15° 66° (ENE) 16:23:30 145.935-145.965
DOVE 4 23 May 16:20:04 16:25:10 54° 287° (WNW) 16:29:59 437.250
PHONESAT 2.4 23 May 16:22:11 16:25:19 32° 206° (SSW) 16:28:27 2401.200-2431.200
BUGSAT 1 23 May 16:23:47 16:24:35 11° 64° (ENE) 16:25:37 437.445
CINEMA 3 23 May 16:29:29 16:34:21 85° 283° (WNW) 16:38:57 145.822/145.860
ZACube-1 23 May 16:33:54 16:37:48 32° 96° (E) 16:41:38 437.345
AAUSAT CUBESAT 2 23 May 16:33:58 16:38:02 58° 285° (WNW) 16:42:05 437.432
GOMX 1 23 May 16:36:50 16:41:26 28° 292° (WNW) 16:45:47 467.674
TIGRISAT 23 May 16:40:09 16:44:46 57° 74° (ENE) 16:49:23 435.000
Cosmos 2504 23 May 16:43:43 16:52:04 64° 93° (E) 16:59:55 435.465 / 435.565
YUBILEINY 23 May 16:44:04 16:49:34 17° 300° (WNW) 16:54:33 435.215
UKube-1 23 May 16:45:19 16:48:19 19° 93° (E) 16:51:27 .
DX 1 23 May 16:47:28 16:50:48 21° 94° (E) 16:54:14 434.975-435.025
NANOSAT C BR1 23 May 16:49:59 16:53:46 32° 71° (ENE) 16:57:36 145.865
QB50P2 23 May 16:54:37 16:58:33 37° 72° (ENE) 17:02:33 145.880/145.840
RS-15 23 May 16:55:31 17:06:24 71° 306° (NW) 17:17:35 29.354- 29.394
Oscar 11 23 May 16:55:57 17:00:16 77° 283° (WNW) 17:04:32 145.826/435.025
UNISAT 6 23 May 16:58:35 17:03:19 87° 257° (WSW) 17:08:01 437.425
CANX-2 23 May 17:01:17 17:03:57 16° 293° (WNW) 17:06:26 2200.000
HUMSAT D 23 May 17:02:53 17:06:33 29° 96° (E) 17:10:12 437.325/437.525
CUTE 1.7 + AOD 2 23 May 17:05:31 17:08:10 16° 293° (WNW) 17:10:39 437.475
PCSat 23 May 17:07:03 17:12:19 50° 56° (ENE) 17:17:34 145.827
POPSAT HIP 1 23 May 17:07:46 17:11:54 51° 74° (ENE) 17:16:06 437.405
UWE-3 23 May 17:09:31 17:14:00 77° 284° (WNW) 17:18:18 435.000/436.395/437.385
DUCHIFAT 1 23 May 17:13:12 17:17:22 58° 75° (ENE) 17:21:36 145.980
AISAT 23 May 17:14:57 17:18:26 22° 94° (E) 17:22:00 437.250
50 SAT 23 May 17:23:02 17:26:21 27° 95° (E) 17:29:41 437.505
HO-68 23 May 17:24:10 17:30:07 28° 298° (WNW) 17:35:53 435.675
DELFI C3 23 May 17:29:47 17:33:33 39° 287° (WNW) 17:37:17 145.870
FUNcube-1 23 May 17:31:08 17:35:26 56° 286° (WNW) 17:39:35 145.935
ANTELSAT 23 May 17:42:31 17:46:41 30° 264° (W) 17:50:48 437.575/2403.000
CUBEBUG 2 23 May 17:50:23 17:54:00 23° 292° (WNW) 17:57:25 437.445
POLYITAN 1 23 May 17:51:57 17:56:06 47° 261° (W) 18:00:17 437.675
QB50P1 23 May 17:52:22 17:56:29 47° 261° (W) 18:00:38 145.935-145.965
BUGSAT 1 23 May 17:55:27 17:59:32 65° 259° (WSW) 18:03:42 437.445
ESTCUBE 1 23 May 18:06:56 18:11:17 47° 99° (E) 18:15:40 437.505/2401.250
ZACube-1 23 May 18:10:38 18:13:59 21° 292° (WNW) 18:17:10 437.345
TIGRISAT 23 May 18:19:26 18:21:55 14° 271° (W) 18:24:10 435.000
VELOX 1 23 May 18:20:34 18:25:04 71° 284° (WNW) 18:29:30 145.980
UKube-1 23 May 18:20:36 18:24:36 36° 289° (WNW) 18:28:34 .
DX 1 23 May 18:23:12 18:27:08 32° 290° (WNW) 18:31:00 434.975-435.025
NANOSAT C BR1 23 May 18:26:26 18:29:41 20° 267° (W) 18:32:49 145.865
DANDE 23 May 18:28:35 18:30:44 12° 77° (ENE) 18:33:37 436.750
CUBEBUG 1 23 May 18:30:53 18:35:21 77° 103° (ESE) 18:39:47 437.445
TISAT 1 23 May 18:31:22 18:33:34 14° 90° (E) 18:35:59 437.305
QB50P2 23 May 18:31:40 18:34:38 17° 268° (W) 18:37:27 145.880/145.840
HUMSAT D 23 May 18:38:57 18:42:10 21° 291° (WNW) 18:45:14 437.325/437.525
Cosmos 2504 23 May 18:39:11 18:46:03 26° 291° (WNW) 18:52:19 435.465 / 435.565
Oscar 19 23 May 18:43:22 18:47:12 22° 66° (ENE) 18:51:12 437.125/150
POPSAT HIP 1 23 May 18:46:07 18:48:09 13° 270° (W) 18:49:57 437.405
AISAT 23 May 18:51:04 18:55:05 32° 290° (WNW) 18:59:03 437.250
PCSat 23 May 18:51:18 18:55:25 22° 253° (WSW) 18:59:21 145.827
DUCHIFAT 1 23 May 18:52:15 18:53:38 11° 271° (W) 18:54:45 145.980
50 SAT 23 May 18:58:02 19:00:57 20° 291° (WNW) 19:03:44 437.505
SO-50 23 May 19:08:05 19:12:52 47° 53° (NE) 19:17:36 436.795
GONETS M04 23 May 19:11:30 19:19:07 35° 86° (E) 19:26:56
RS-15 23 May 19:12:41 19:21:23 25° 334° (NNW) 19:30:06 29.354- 29.394
CUSAT 1 23 May 19:22:46 19:29:11 46° 90° (E) 19:36:50 437.405
SPROUT 23 May 19:25:51 19:30:14 86° 105° (ESE) 19:34:33 437.525
ESTCUBE 1 23 May 19:44:55 19:47:50 17° 294° (WNW) 19:50:34 437.505/2401.250
TISAT 1 23 May 20:05:33 20:09:39 45° 287° (WNW) 20:13:43 437.305
DANDE 23 May 20:05:53 20:12:22 73° 96° (E) 20:20:31 436.750
CUBEBUG 1 23 May 20:10:21 20:11:09 10° 297° (WNW) 20:11:41 437.445
Oscar 19 23 May 20:21:19 20:26:17 45° 261° (W) 20:31:16 437.125/150
ITAMSAT 1 23 May 20:26:07 20:31:11 60° 73° (ENE) 20:36:18 435.822/435.867
ITUPSAT 1 23 May 20:36:25 20:41:05 52° 100° (E) 20:45:46 437.325
Gurwin Techsat 1B 23 May 20:39:54 20:45:11 75° 75° (ENE) 20:50:31 435.225
JUGNU 23 May 20:40:15 20:41:18 10° 182° (S) 20:42:21 437.505
BEESAT 23 May 20:46:44 20:51:29 69° 101° (E) 20:56:15 436.000
SO-50 23 May 20:49:23 20:53:08 21° 249° (WSW) 20:56:42 436.795
SWISSCUBE 23 May 20:54:32 20:59:21 90° 103° (ESE) 21:04:08 437.505
CUSAT 1 23 May 21:05:39 21:12:06 36° 292° (WNW) 21:19:26 437.405
GONETS M04 23 May 21:07:15 21:15:45 49° 285° (WNW) 21:24:14
Cosmos 2499 23 May 21:24:58 21:32:44 47° 91° (E) 21:40:04 435.465 / 435.565
AO-7 23 May 21:26:21 21:34:05 47° 64° (ENE) 21:41:56 29.400- 29.500
RS-15 23 May 21:32:05 21:39:23 19° 10° (N) 21:47:03 29.354- 29.394
JAS-2 23 May 21:34:10 21:40:45 48° 72° (ENE) 21:46:39 435.910
STARS 23 May 21:34:13 21:37:42 23° 94° (E) 21:41:14 437.465
HORYU 2 23 May 21:44:41 21:49:05 56° 74° (ENE) 21:53:30 437.375
SRMSAT 23 May 21:49:31 21:50:46 11° 178° (S) 21:52:01 437.500
DANDE 23 May 21:51:14 21:56:44 23° 299° (WNW) 22:02:43 436.750
KKS-1 23 May 21:55:45 22:00:15 66° 102° (ESE) 22:04:40 437.445
ITAMSAT 1 23 May 22:08:05 22:11:11 15° 270° (W) 22:14:02 435.822/435.867
ITUPSAT 1 23 May 22:15:31 22:18:37 17° 295° (WNW) 22:21:32 437.325
O/OREOS (USA 219) 23 May 22:20:33 22:24:42 37° 106° (ESE) 22:28:53 437.305
Gurwin Techsat 1B 23 May 22:23:29 22:25:51 12° 272° (W) 22:27:53 435.225
BEESAT 23 May 22:26:33 22:28:50 13° 297° (WNW) 22:30:52 436.000
MOZHAYETS 4 23 May 22:56:38 23:00:12 23° 93° (E) 23:03:52
STARS 23 May 23:10:16 23:14:11 30° 290° (WNW) 23:18:01 437.465
Cosmos 2499 23 May 23:18:41 23:26:04 34° 288° (WNW) 23:32:52 435.465 / 435.565
AO-7 23 May 23:19:25 23:27:02 38° 263° (W) 23:34:34 29.400- 29.500
JAS-2 23 May 23:20:06 23:25:59 28° 265° (W) 23:31:12 435.910
HORYU 2 23 May 23:24:02 23:26:09 13° 270° (W) 23:28:01 437.375
KKS-1 23 May 23:34:31 23:36:22 12° 296° (WNW) 23:38:00 437.445
RS-15 23 May 23:45:39 23:56:16 41° 42° (NE) 00:07:28 29.354- 29.394
CUTE-I 23 May 23:49:35 23:54:11 31° 68° (ENE) 23:58:52 437.470
O/OREOS (USA 219) 24 May 00:00:48 00:04:17 21° 303° (WNW) 00:07:39 437.305
Cubesat XI-IV 24 May 00:08:27 00:13:29 47° 72° (ENE) 00:18:36 437.490
CUBESAT XI-V 24 May 00:24:58 00:27:47 16° 90° (E) 00:30:48 437.345
MOZHAYETS 4 24 May 00:33:25 00:37:30 32° 289° (WNW) 00:41:30
BEESAT 3 24 May 00:44:16 00:47:47 29° 114° (ESE) 00:51:23 437.485
YUBILEINY 24 May 00:54:07 01:02:20 46° 74° (ENE) 01:10:37 435.215
Cosmos 2491 24 May 00:56:48 01:03:06 24° 83° (E) 01:09:49 435.465 / 435.565
BEESAT 2 24 May 01:27:08 01:31:12 72° 120° (ESE) 01:35:21 435.950
CUTE-I 24 May 01:29:32 01:34:15 31° 265° (W) 01:38:54 437.470
BRITE-PL 24 May 01:43:17 01:47:39 32° 69° (ENE) 01:52:24 437.365/2234.400
STRAND 1 24 May 01:46:48 01:51:45 46° 99° (E) 01:56:42 437.568
DOVE 4 24 May 01:48:27 01:51:27 16° 64° (ENE) 01:54:44 437.250
Cubesat XI-IV 24 May 01:49:56 01:53:53 20° 268° (W) 01:57:43 437.490
PRISM 24 May 01:50:22 01:54:28 59° 101° (E) 01:58:34 437.425
RS-15 24 May 01:58:01 02:09:34 67° 244° (WSW) 02:21:28 29.354- 29.394
CUBESAT XI-V 24 May 02:01:01 02:05:32 48° 287° (WNW) 02:10:02 437.345
HO-68 24 May 02:03:18 02:09:43 38° 65° (ENE) 02:16:15 435.675
GOMX 1 24 May 02:05:12 02:09:41 34° 70° (ENE) 02:14:30 467.674
CANX-2 24 May 02:16:30 02:20:03 27° 71° (ENE) 02:23:42 2200.000
CUTE 1.7 + AOD 2 24 May 02:20:39 02:24:13 27° 71° (ENE) 02:27:51 437.475
M-CUBED/EXP-1 PRIME 24 May 02:21:51 02:25:06 50° 105° (ESE) 02:28:18 437.505
BEESAT 3 24 May 02:22:19 02:25:46 25° 311° (NW) 02:29:12 437.485
AIST 2 24 May 02:30:25 02:34:41 84° 302° (WNW) 02:38:59 435.215
AUBIESAT-1 24 May 02:33:38 02:36:56 64° 106° (ESE) 02:40:12 437.475
AIST 1 24 May 02:34:22 02:36:56 16° 88° (E) 02:39:39
